Погода во Вране

Сербия     42°33′07″N   21°53′59″E
темп.,
°C
ветер,
м/с
пор.,
м/с
влажн.,
%
обл.,
%
осадки,
мм/ч
давл.,
гПа
погр.,
м
13 апреля, вт
вт1323:00+10юв1171100 0.0 101811
02:00+10юз1177100 0.1 101817
05:00+9сз0197100 2.1 101848
08:00+10зсз1192100 2.5 1017235
11:00+10юз2290100 0.4 1016349
14:00+10зюз2387100 1.6 1015422
17:00+10всв1180100 5.5 1014401
20:00+8вюв118947 7.3 101567
14 апреля, ср
ср1423:00+7ссв118888 0.1 101512
02:00+5ссз239878 0.8 101598
05:00+3с349899 0.7 1016228
08:00+1с3497100 0.9 1018270
11:00+3ссв348061 0.2 1018478
14:00+5с4571100 0.2 1018802
17:00+5с456733 0.0 1018851
20:00+1ссв358814 0.1 1021185
15 апреля, чт
чт1523:00−1св23916 0.0 102262
02:00−1св228911 0.0 102244
05:00−1св22879 0.0 102264
08:00+2ссв356597 0.0 1022864
11:00+5с444912 0.0 10201185
14:00+7ссз544826 0.0 10201366
17:00+6с34485 0.0 10191140
20:00
16 апреля, пт
пт1623:000св22755 0.0 102225
02:000св2272100 0.0 102215
05:00−1св21805 0.0 102217
08:00+3с246042 0.0 1022889
11:00+6с344170 0.0 10211267
14:00+9ссз33385 0.0 10191412
17:00+8с444321 0.0 10181102
20:00+2св226697 0.0 102022
17 апреля, сб
сб1723:00+1св2269100 0.0 102129
02:00+2св2266100 0.1 101940
05:00+2ссв1169100 0.2 101920
08:00+3зсз017399 0.5 1019298
11:00+6ссз1275100 0.2 1017694
14:00+6ююз1287100 0.8 1016546
17:00+5зюз1194100 0.4 1015321
20:00+4юз0197100 0.6 1015129